| time (UTC) | temp F | wind direction | speed MPH | gust MPH | rain 1hr in | rain 24hr in | rain mn in | humidity % | barometer mb |
| 20260902221534 | 91 | 348 | 0.0 | 0.0 | 0.00 | 0.00 | 0.00 | 58 | 1011.7 |
| 20260902220018 | 91 | 348 | 0.0 | 0.0 | 0.00 | 0.00 | 0.00 | 57 | 1011.8 |
| 20260902214528 | 93 | 348 | 0.0 | 0.0 | 0.00 | 0.00 | 0.00 | 49 | 1011.8 |
| 20260902213030 | 93 | 348 | 0.0 | 1.0 | 0.00 | 0.00 | 0.00 | 49 | 1011.9 |
| 20260902211531 | 94 | 317 | 0.0 | 2.0 | 0.00 | 0.00 | 0.00 | 48 | 1012.0 |
| 20260902210049 | 95 | 333 | 0.0 | 2.0 | 0.00 | 0.00 | 0.00 | 45 | 1012.1 |
| 20260902204516 | 96 | 323 | 0.0 | 2.0 | 0.00 | 0.00 | 0.00 | 44 | 1012.3 |
| 20260902203024 | 96 | 28 | 0.0 | 6.0 | 0.00 | 0.00 | 0.00 | 44 | 1012.6 |
| 20260902201537 | 96 | 211 | 0.0 | 3.0 | 0.00 | 0.00 | 0.00 | 40 | 1012.8 |
| 20260902200034 | 102 | 149 | 1.0 | 3.0 | 0.00 | 0.00 | 0.00 | 36 | 1013.0 |
| 20260902194538 | 102 | 219 | 2.0 | 8.0 | 0.00 | 0.00 | 0.00 | 36 | 1013.3 |
| 20260902193035 | 101 | 225 | 0.0 | 6.0 | 0.00 | 0.00 | 0.00 | 38 | 1013.6 |
| 20260902191529 | 102 | 111 | 1.0 | 3.0 | 0.00 | 0.00 | 0.00 | 37 | 1013.8 |
| 20260902190037 | 100 | 86 | 1.0 | 4.0 | 0.00 | 0.00 | 0.00 | 37 | 1014.1 |
| 20260902184512 | 98 | 281 | 0.0 | 3.0 | 0.00 | 0.00 | 0.00 | 39 | 1014.4 |
| 20260902183018 | 101 | 302 | 1.0 | 7.0 | 0.00 | 0.00 | 0.00 | 37 | 1014.6 |
| 20260902181513 | 101 | 309 | 1.0 | 5.0 | 0.00 | 0.00 | 0.00 | 38 | 1014.9 |
| 20260902180007 | 100 | 158 | 1.0 | 6.0 | 0.00 | 0.00 | 0.00 | 41 | 1015.3 |
| 20260902174509 | 99 | 327 | 0.0 | 6.0 | 0.00 | 0.00 | 0.00 | 40 | 1015.6 |
| 20260902173017 | 98 | 244 | 1.0 | 4.0 | 0.00 | 0.00 | 0.00 | 41 | 1015.9 |
| 20260902171521 | 98 | 36 | 2.0 | 8.0 | 0.00 | 0.00 | 0.00 | 42 | 1016.0 |
| 20260902170017 | 97 | 249 | 1.0 | 4.0 | 0.00 | 0.00 | 0.00 | 45 | 1016.2 |
| 20260902164507 | 96 | 248 | 0.0 | 4.0 | 0.00 | 0.00 | 0.00 | 46 | 1016.3 |
| 20260902163012 | 94 | 232 | 1.0 | 6.0 | 0.00 | 0.00 | 0.00 | 46 | 1016.4 |
| 20260902161524 | 93 | 296 | 3.0 | 6.0 | 0.00 | 0.00 | 0.00 | 48 | 1016.4 |
| 20260902160022 | 92 | 215 | 3.0 | 8.0 | 0.00 | 0.00 | 0.00 | 49 | 1016.3 |
| 20260902154528 | 90 | 237 | 2.0 | 7.0 | 0.00 | 0.00 | 0.00 | 53 | 1016.4 |
| 20260902153015 | 88 | 227 | 1.0 | 4.0 | 0.00 | 0.00 | 0.00 | 57 | 1016.4 |
| 20260902151520 | 87 | 290 | 3.0 | 7.0 | 0.00 | 0.00 | 0.00 | 59 | 1016.5 |
| 20260902150027 | 86 | 270 | 0.0 | 3.0 | 0.00 | 0.00 | 0.00 | 65 | 1016.5 |
| 20260902144534 | 84 | 312 | 1.0 | 5.0 | 0.00 | 0.00 | 0.00 | 66 | 1016.5 |
| 20260902143028 | 84 | 219 | 1.0 | 4.0 | 0.00 | 0.00 | 0.00 | 69 | 1016.6 |
| 20260902141518 | 83 | 249 | 1.0 | 7.0 | 0.00 | 0.00 | 0.00 | 72 | 1016.5 |
| 20260902140033 | 81 | 261 | 2.0 | 8.0 | 0.00 | 0.00 | 0.00 | 74 | 1016.3 |
| 20260902134534 | 79 | 279 | 0.0 | 2.0 | 0.00 | 0.00 | 0.00 | 78 | 1016.2 |
| 20260902133029 | 77 | 223 | 0.0 | 1.0 | 0.00 | 0.00 | 0.00 | 83 | 1016.2 |
| 20260902131542 | 76 | 252 | 0.0 | 0.0 | 0.00 | 0.00 | 0.00 | 83 | 1016.1 |
| 20260902130020 | 75 | 252 | 0.0 | 0.0 | 0.00 | 0.00 | 0.00 | 84 | 1016.0 |
| 20260902124527 | 75 | 252 | 0.0 | 0.0 | 0.00 | 0.00 | 0.00 | 84 | 1015.8 |
| 20260902123007 | 75 | 252 | 0.0 | 0.0 | 0.00 | 0.00 | 0.00 | 84 | 1015.8 |
| 20260902121514 | 75 | 252 | 0.0 | 0.0 | 0.00 | 0.00 | 0.00 | 83 | 1015.6 |
| 20260902120018 | 75 | 252 | 0.0 | 0.0 | 0.00 | 0.00 | 0.00 | 83 | 1015.5 |
| 20260902114524 | 75 | 252 | 0.0 | 0.0 | 0.00 | 0.00 | 0.00 | 82 | 1015.5 |
| 20260902113004 | 76 | 252 | 0.0 | 0.0 | 0.00 | 0.00 | 0.00 | 81 | 1015.5 |
| 20260902111515 | 76 | 252 | 0.0 | 0.0 | 0.00 | 0.00 | 0.00 | 81 | 1015.4 |
| 20260902110015 | 76 | 252 | 0.0 | 0.0 | 0.00 | 0.00 | 0.00 | 80 | 1015.3 |
| 20260902104521 | 77 | 252 | 0.0 | 0.0 | 0.00 | 0.00 | 0.00 | 79 | 1015.4 |
| 20260902103036 | 77 | 252 | 0.0 | 2.0 | 0.00 | 0.00 | 0.00 | 78 | 1015.5 |
| 20260902101506 | 78 | 252 | 0.0 | 2.0 | 0.00 | 0.00 | 0.00 | 77 | 1015.5 |
| 20260902100014 | 78 | 252 | 0.0 | 2.0 | 0.00 | 0.00 | 0.00 | 78 | 1015.6 |
| 20260902094517 | 78 | 252 | 0.0 | 1.0 | 0.00 | 0.00 | 0.00 | 80 | 1015.6 |
| 20260902093023 | 78 | 235 | 0.0 | 2.0 | 0.00 | 0.00 | 0.00 | 80 | 1015.6 |
| 20260902091556 | 78 | 237 | 0.0 | 2.0 | 0.00 | 0.00 | 0.00 | 80 | 1015.6 |
| 20260902090010 | 77 | 25 | 0.0 | 0.0 | 0.00 | 0.00 | 0.00 | 80 | 1015.7 |
| 20260902084516 | 77 | 25 | 0.0 | 0.0 | 0.00 | 0.00 | 0.00 | 78 | 1015.6 |
| 20260902083021 | 78 | 25 | 0.0 | 0.0 | 0.00 | 0.00 | 0.00 | 78 | 1015.6 |
| 20260902081533 | 78 | 25 | 0.0 | 0.0 | 0.00 | 0.00 | 0.00 | 78 | 1015.9 |
| 20260902080037 | 78 | 25 | 0.0 | 0.0 | 0.00 | 0.00 | 0.00 | 77 | 1015.8 |
| 20260902074516 | 78 | 52 | 0.0 | 0.0 | 0.00 | 0.00 | 0.00 | 77 | 1015.9 |
| 20260902073022 | 79 | 52 | 0.0 | 0.0 | 0.00 | 0.00 | 0.00 | 76 | 1015.9 |
| 20260902071549 | 79 | 52 | 0.0 | 0.0 | 0.00 | 0.00 | 0.00 | 75 | 1015.9 |
| 20260902070031 | 80 | 52 | 0.0 | 0.0 | 0.00 | 0.00 | 0.00 | 74 | 1016.0 |
| 20260902064531 | 80 | 52 | 0.0 | 1.0 | 0.00 | 0.00 | 0.00 | 74 | 1016.1 |
| 20260902063025 | 81 | 77 | 0.0 | 0.0 | 0.00 | 0.00 | 0.00 | 73 | 1016.1 |
| 20260902061539 | 81 | 77 | 0.0 | 2.0 | 0.00 | 0.00 | 0.00 | 72 | 1016.0 |
| 20260902060032 | 82 | 132 | 0.0 | 1.0 | 0.00 | 0.00 | 0.00 | 71 | 1016.0 |
| 20260902054541 | 82 | 110 | 0.0 | 2.0 | 0.00 | 0.00 | 0.00 | 69 | 1015.9 |
| 20260902053033 | 83 | 136 | 0.0 | 2.0 | 0.00 | 0.00 | 0.00 | 68 | 1015.7 |
| 20260902051526 | 83 | 141 | 0.0 | 2.0 | 0.00 | 0.00 | 0.00 | 67 | 1015.8 |
| 20260902050040 | 84 | 98 | 0.0 | 2.0 | 0.00 | 0.00 | 0.00 | 66 | 1015.8 |
| 20260902044532 | 85 | 148 | 0.0 | 5.0 | 0.00 | 0.00 | 0.00 | 65 | 1015.8 |
| 20260902043033 | 85 | 167 | 0.0 | 4.0 | 0.00 | 0.00 | 0.00 | 64 | 1015.8 |
| 20260902041505 | 85 | 108 | 0.0 | 3.0 | 0.00 | 0.00 | 0.00 | 63 | 1015.7 |
| 20260902040004 | 86 | 114 | 0.0 | 2.0 | 0.00 | 0.00 | 0.00 | 62 | 1015.7 |
| 20260902034507 | 86 | 126 | 0.0 | 2.0 | 0.00 | 0.00 | 0.00 | 61 | 1015.5 |
| 20260902033011 | 86 | 142 | 0.0 | 3.0 | 0.00 | 0.00 | 0.00 | 61 | 1015.3 |
| 20260902031517 | 86 | 146 | 0.0 | 2.0 | 0.00 | 0.00 | 0.00 | 60 | 1015.2 |
| 20260902030004 | 87 | 157 | 0.0 | 5.0 | 0.00 | 0.00 | 0.00 | 59 | 1014.9 |
| 20260902024504 | 87 | 258 | 0.0 | 3.0 | 0.00 | 0.00 | 0.00 | 58 | 1014.5 |
| 20260902023015 | 88 | 78 | 0.0 | 2.0 | 0.00 | 0.00 | 0.00 | 57 | 1014.3 |
| 20260902021513 | 87 | 64 | 0.0 | 4.0 | 0.00 | 0.00 | 0.00 | 57 | 1014.0 |
| 20260902020023 | 87 | 129 | 0.0 | 3.0 | 0.00 | 0.00 | 0.00 | 56 | 1013.9 |
| 20260902014504 | 88 | 95 | 0.0 | 4.0 | 0.00 | 0.00 | 0.00 | 54 | 1013.8 |
| 20260902013005 | 88 | 126 | 0.0 | 2.0 | 0.00 | 0.00 | 0.00 | 53 | 1013.6 |
| 20260902011521 | 89 | 159 | 0.0 | 4.0 | 0.00 | 0.00 | 0.00 | 51 | 1013.5 |
| 20260902010036 | 90 | 49 | 0.0 | 3.0 | 0.00 | 0.00 | 0.00 | 50 | 1013.4 |
| 20260902004527 | 91 | 182 | 0.0 | 6.0 | 0.00 | 0.00 | 0.00 | 50 | 1013.5 |
| 20260902003004 | 92 | 157 | 0.0 | 7.0 | 0.00 | 0.00 | 0.00 | 47 | 1013.6 |
| 20260902001512 | 93 | 74 | 0.0 | 6.0 | 0.00 | 0.00 | 0.00 | 46 | 1013.6 |
| 20260902000024 | 94 | 65 | 0.0 | 4.0 | 0.00 | 0.00 | 0.00 | 42 | 1013.5 |
| 20260901234526 | 95 | 142 | 0.0 | 3.0 | 0.00 | 0.00 | 0.00 | 42 | 1013.5 |
| 20260901233027 | 96 | 143 | 0.0 | 4.0 | 0.00 | 0.00 | 0.00 | 42 | 1013.5 |
| 20260901231508 | 96 | 156 | 0.0 | 8.0 | 0.00 | 0.00 | 0.00 | 42 | 1013.5 |
| 20260901230026 | 97 | 63 | 0.0 | 5.0 | 0.00 | 0.00 | 0.00 | 41 | 1013.6 |
| 20260901224527 | 97 | 349 | 0.0 | 3.0 | 0.00 | 0.00 | 0.00 | 41 | 1013.5 |
| 20260901223042 | 97 | 182 | 0.0 | 3.0 | 0.00 | 0.00 | 0.00 | 43 | 1013.6 |